Epoch 2003 May 1.0 TT = JDT 2452760.5 T 2003 May 13.59981 TT MPC q 6.8119986 (2000.0) P Q z +0.0002205 Peri. 314.67296 +0.42023518 +0.90395940 +/-0.0000012 Node 20.23465 +0.88375811 -0.42750017 e 0.9984976 Incl. 166.77615 +0.20584945 -0.01005004 From 278 observations 2001 Jan. 3-2005 Sept. 26, mean residual 0".6.
m1 = 6.0 + 5 logΔ + 10.0 log r